Retour au catalogue

COSMOS 2251 DEB

ActifLEO
NORAD 36540·DEBRIS·🇷🇺 Russia

Lancé Jun 16, 1993 depuis Plesetsk Cosmodrome

Loading…

Prochains Passages (prochaines 24 heures)

TLE

FraisSource: Space-Track

Époque: Sep 14, 2026, 18:21 UTC

1 36540U 93036BDA 26257.76484991  .00002834  00000-0  58380-3 0  9993
2 36540  74.0299  13.6222 0014868  13.7390 346.4177 14.60912178900388

Suivez COSMOS 2251 DEB en temps réel avec AllMySat

Download on the App Store